Wind_Speed
64 64 65 64 63 62 61 58 57 56 55 55 50 42 44 44 38 40 43 37 35 39 40 38 37 33 26 27 30 32 37 38 36 37 39 37 34 31 31 29 28 29 30 32 33 34 35 34 34 33 32 32 31 31 31 32 31 32 33 34 34 34 33 31 29 28 27 26 26 26 25 25 24 23 22 21 20 20 20 22 22 21 22 22 23 23
65 66 65 63 62 61 59 57 56 56 55 55 48 41 43 44 40 42 44 38 35 39 41 39 39 35 27 27 30 31 33 35 34 35 36 36 36 34 34 34 32 30 31 32 34 34 34 34 35 35 34 33 32 32 33 33 33 33 34 35 36 36 35 33 32 32 30 29 29 29 28 26 25 24 23 22 22 21 21 23 24 23 24 24 25 24
69 68 65 63 62 61 61 59 57 55 55 55 48 42 45 46 44 43 42 37 36 40 42 40 40 37 29 28 31 31 30 30 31 32 32 34 37 37 36 36 35 34 33 33 34 34 33 34 35 35 35 35 34 34 34 34 34 34 35 35 36 37 38 37 36 35 33 32 32 31 30 29 27 25 24 24 23 23 23 24 25 25 26 26 26 25
72 69 65 64 64 63 63 62 60 58 58 58 51 46 48 48 45 41 41 39 37 40 43 42 42 40 32 29 30 30 28 28 30 31 31 31 34 37 38 37 37 37 36 36 36 34 33 33 35 35 36 36 37 36 36 36 35 35 36 37 38 39 40 40 39 38 37 36 36 34 32 31 29 27 26 26 25 25 25 26 27 27 28 28 27 25
70 68 67 66 66 64 63 63 62 61 60 60 56 50 49 48 43 39 42 41 38 40 45 45 45 42 34 30 30 30 31 31 31 33 33 32 32 34 37 38 39 39 39 38 39 38 35 33 34 35 36 37 38 37 37 37 37 37 38 38 39 40 41 42 41 41 40 40 39 37 35 33 32 30 29 28 28 28 28 29 29 29 28 29 28 26
70 70 70 69 68 66 65 64 63 62 60 60 59 54 50 48 43 41 42 42 40 43 45 45 46 44 36 32 32 32 33 33 32 35 35 35 35 34 34 36 38 40 41 40 41 41 38 35 34 35 36 37 37 37 38 38 39 40 40 40 40 41 42 42 43 43 43 42 42 40 38 36 34 33 32 31 31 31 30 30 30 30 30 30 29 28
73 73 73 70 69 67 66 65 62 61 60 59 60 57 53 50 46 43 43 43 45 46 45 44 45 46 41 35 33 32 33 33 33 35 37 36 36 35 33 34 36 37 39 41 41 43 41 38 37 36 36 37 37 38 39 40 41 42 42 42 41 41 42 42 43 44 45 44 44 42 40 39 38 36 34 34 35 34 32 32 32 31 31 31 30 30
73 73 72 70 69 68 67 65 63 62 61 61 61 57 54 52 50 48 46 47 48 48 47 45 45 48 44 35 31 32 33 33 33 34 35 35 34 34 33 34 35 35 36 39 41 44 45 42 40 39 38 38 39 39 41 42 42 43 44 44 43 43 42 42 43 44 45 46 45 44 42 41 40 39 37 37 38 36 34 33 33 33 33 33 32 33
71 72 72 71 70 70 67 65 64 64 63 64 62 57 54 54 53 51 49 49 49 50 49 47 46 48 46 37 30 31 34 32 29 28 29 32 33 34 35 35 36 37 37 38 39 42 45 46 44 42 41 40 40 41 41 42 43 44 45 46 45 44 43 43 43 44 44 45 46 46 43 42 42 41 40 40 41 39 37 35 35 35 35 34 34 35
69 71 70 71 70 68 66 65 65 64 64 65 63 59 56 56 55 53 51 50 51 52 51 48 46 47 48 43 33 31 33 29 25 26 28 31 33 34 35 36 36 37 39 40 41 41 42 46 47 46 45 44 43 43 42 43 45 46 46 46 45 45 45 45 45 45 45 45 47 47 45 43 43 43 43 43 43 41 40 38 38 37 37 36 36 36
69 70 71 72 70 67 65 65 64 64 64 64 62 60 57 57 55 54 53 52 52 54 52 49 49 48 48 47 38 29 28 28 26 27 28 29 31 33 34 36 37 38 39 40 43 43 42 44 47 49 49 48 48 47 45 44 46 47 47 46 46 46 47 47 46 46 46 47 47 47 46 44 45 45 45 45 45 43 42 41 41 40 39 38 38 38
71 72 73 72 70 67 67 67 66 65 64 62 62 60 58 57 56 55 55 55 56 56 54 52 51 51 50 48 41 29 24 28 29 27 28 27 28 30 31 34 36 37 39 39 41 44 44 44 45 48 50 51 52 51 48 46 46 48 48 47 47 47 48 47 47 47 47 48 48 47 46 46 46 47 47 47 47 46 44 43 44 43 41 40 39 39
73 73 72 70 70 69 69 68 67 66 64 63 62 61 60 59 58 59 59 58 58 57 56 56 55 55 50 46 44 36 26 28 31 29 29 27 26 29 31 32 33 34 36 37 37 39 40 41 43 45 49 52 53 53 50 48 48 48 48 48 48 48 48 48 48 47 48 48 48 47 47 47 47 47 48 48 49 49 47 46 46 45 43 42 41 40
74 74 73 71 70 70 69 68 67 66 64 63 63 63 62 62 62 62 62 61 60 59 59 59 59 56 49 44 46 41 31 30 33 31 29 28 26 28 31 32 33 32 33 34 34 34 36 37 39 42 46 49 51 52 52 49 48 47 48 49 49 48 49 49 48 48 48 48 48 47 47 47 47 46 47 48 49 49 49 48 47 46 45 44 43 42
73 75 75 73 73 70 68 67 66 63 62 62 63 63 63 62 62 60 60 59 59 59 59 60 60 55 48 45 46 44 37 33 32 30 28 28 27 28 30 32 34 34 34 34 34 34 33 33 35 37 41 45 48 51 52 50 48 47 46 48 49 49 49 50 49 49 49 48 48 48 48 47 47 47 46 47 49 49 49 49 48 48 47 46 45 44
69 70 69 69 70 69 68 68 66 65 65 66 65 65 64 62 60 58 59 58 58 59 60 61 59 53 49 49 48 48 43 34 30 30 29 28 28 29 30 31 34 36 37 38 37 36 35 34 34 35 37 39 43 47 51 51 51 49 48 48 49 50 51 51 50 50 49 49 49 49 48 47 47 47 47 47 48 48 49 49 49 50 49 48 47 47
64 65 63 63 66 66 67 67 65 65 67 68 68 68 65 62 60 60 60 60 60 62 62 60 58 54 52 53 51 50 47 36 29 29 30 30 29 30 31 31 34 36 38 39 40 40 39 38 37 36 36 37 37 40 44 48 50 51 50 50 50 51 52 52 51 51 51 50 50 49 49 49 48 48 48 48 48 48 49 49 50 51 50 49 49 49
63 63 62 63 65 66 66 66 66 67 67 67 67 66 64 62 62 61 60 60 60 62 62 60 59 58 57 57 54 50 45 38 33 31 32 31 30 31 32 33 35 36 37 38 40 41 42 42 41 39 38 38 37 36 37 40 44 48 50 51 51 52 53 54 53 52 52 52 51 51 50 50 49 49 49 49 49 49 49 50 51 52 51 49 50 50
62 61 61 61 64 65 66 68 69 70 69 68 66 64 63 64 64 62 61 62 62 62 62 61 62 63 61 58 54 48 43 42 41 39 36 33 33 34 34 36 36 36 37 38 38 40 41 43 44 43 42 41 41 40 39 38 39 41 46 49 51 52 53 55 56 54 53 53 53 52 51 51 51 50 50 51 51 50 51 51 52 53 51 50 51 52
62 62 60 58 59 63 67 70 71 70 69 69 67 66 66 66 65 64 63 62 62 62 62 62 63 64 62 56 52 48 45 44 45 46 43 38 37 39 38 37 38 37 37 38 39 39 40 41 42 43 44 44 44 44 43 42 40 39 41 44 49 52 54 55 56 57 55 54 54 54 53 53 53 52 52 53 53 52 52 53 53 53 52 52 53 53
61 64 62 60 59 61 65 66 65 67 68 67 67 67 69 69 67 66 64 62 61 61 61 62 64 63 59 54 51 48 46 46 47 50 50 44 41 42 42 40 39 38 37 38 39 40 40 40 40 41 42 43 43 43 43 44 44 43 42 42 45 49 52 55 56 58 58 57 56 55 54 55 55 55 54 55 55 54 54 54 54 54 54 54 54 54
58 61 62 63 62 60 60 59 60 64 65 64 66 67 67 68 67 67 66 64 62 62 61 61 62 60 56 55 54 50 48 49 48 49 52 52 47 43 43 42 40 39 39 38 39 39 39 39 40 40 40 41 42 42 42 42 44 45 45 45 46 46 49 52 55 58 59 59 58 57 56 57 57 57 57 57 57 57 56 55 55 55 55 55 55 55
54 56 59 61 63 62 61 59 60 61 62 63 66 67 67 67 66 65 65 63 62 60 58 57 60 61 59 58 57 53 49 50 50 50 51 53 50 45 43 43 43 42 41 40 39 39 39 39 39 39 40 41 41 41 41 42 42 44 45 46 48 48 49 51 53 56 59 61 61 60 59 59 59 59 59 59 59 58 57 57 57 57 57 57 57 57
55 56 59 61 63 65 63 61 60 59 61 64 65 65 65 64 62 62 62 60 59 57 53 52 57 62 62 59 56 52 48 47 49 50 48 49 50 49 47 45 44 43 42 42 42 41 41 41 41 41 41 41 41 41 42 42 43 44 44 45 47 49 50 52 53 55 58 61 63 62 62 61 61 61 61 60 60 60 59 59 58 58 58 58 58 58
57 57 59 62 64 66 66 65 64 61 59 60 60 61 62 61 61 63 62 60 61 58 54 54 59 64 63 57 51 47 46 44 45 46 47 49 52 52 50 47 44 44 43 43 44 44 43 43 43 42 42 42 42 42 42 42 43 44 45 45 47 49 51 53 55 57 59 62 63 64 64 63 63 63 63 62 62 62 61 61 60 60 59 59 59 59
59 60 60 63 66 66 65 61 56 51 50 53 57 61 62 62 64 64 62 64 64 59 58 60 61 58 54 50 46 44 45 46 46 47 50 51 53 53 51 49 46 43 42 42 42 43 43 43 42 42 42 42 42 43 43 44 44 45 45 46 47 49 52 54 56 59 61 63 64 65 65 64 64 64 64 64 64 64 63 62 62 61 61 60 59 60
58 60 61 63 63 63 62 59 53 50 51 53 55 59 63 66 67 65 66 67 62 58 60 58 50 44 42 44 47 46 48 49 46 45 47 49 51 53 53 51 48 43 41 40 40 40 40 40 41 41 42 43 42 43 43 44 45 46 47 48 49 50 52 54 57 59 62 64 65 65 65 65 65 64 64 65 65 64 64 63 63 62 61 61 60 60
61 61 60 59 60 61 62 61 55 52 54 54 53 54 59 63 65 65 66 61 54 55 58 49 40 39 40 42 46 46 45 46 43 40 43 47 50 52 51 49 46 43 40 38 38 38 38 39 39 40 42 43 43 44 44 45 46 47 49 50 51 52 52 54 56 59 62 64 66 67 66 65 65 64 64 64 64 64 64 63 63 62 62 61 61 61
68 66 60 58 60 60 61 59 55 52 54 55 54 52 52 55 56 59 58 52 49 54 51 41 40 42 39 38 42 44 45 48 46 43 42 45 46 47 46 44 43 42 41 40 40 41 40 40 40 41 42 43 44 45 46 46 47 49 50 52 53 53 53 54 55 57 61 64 66 68 69 68 66 65 64 63 63 63 63 62 62 62 61 61 61 60
71 69 65 61 60 59 60 61 57 55 56 57 57 55 53 52 51 53 52 48 51 53 44 40 44 43 38 40 43 45 47 48 47 45 43 41 40 41 42 43 43 43 43 43 43 43 42 42 43 43 43 44 44 45 46 47 48 49 50 51 52 53 54 53 54 56 59 63 66 68 70 70 69 67 65 64 63 63 63 63 62 62 61 61 60 60
69 68 65 61 59 59 61 61 59 59 58 58 57 57 56 55 53 51 47 46 50 46 37 41 47 38 32 38 40 40 41 41 42 43 41 39 40 41 43 43 44 45 45 45 44 44 44 44 43 43 42 42 42 43 44 45 46 47 47 47 48 50 52 53 53 54 57 61 65 67 69 70 70 69 67 65 64 64 63 63 62 61 61 60 60 59
67 66 63 60 61 60 59 60 62 61 60 62 62 59 58 56 53 48 44 43 46 40 36 43 42 29 25 30 32 33 35 35 37 39 40 43 45 44 43 43 44 44 45 45 45 44 44 43 42 41 41 41 41 42 43 43 44 45 46 45 45 46 48 51 52 53 55 58 62 66 67 68 68 68 67 66 65 65 65 64 63 62 61 60 59 59
66 65 63 62 62 59 59 61 62 63 67 67 60 54 54 53 51 48 46 44 42 39 40 40 32 23 24 28 29 32 34 35 37 41 44 48 47 44 43 43 43 44 44 44 45 44 44 44 43 42 42 42 42 43 43 43 44 45 45 45 44 44 46 49 51 52 53 56 59 63 66 67 66 66 66 65 65 65 64 64 63 62 61 60 59 59
66 64 63 63 62 61 61 60 62 68 71 61 48 46 51 53 52 50 46 43 41 40 38 33 28 27 31 31 33 35 36 38 43 45 45 44 43 42 42 43 43 44 44 45 45 45 45 45 45 45 44 45 44 44 43 43 43 44 44 44 45 45 46 47 49 51 53 54 56 59 63 65 66 66 65 64 64 63 63 62 62 61 61 60 59 59
64 64 64 64 63 62 60 60 66 69 61 48 44 49 54 55 54 52 48 45 44 41 37 34 34 36 37 36 37 38 37 40 43 42 40 39 40 41 42 44 44 45 46 46 46 46 46 45 45 44 44 44 43 42 42 41 41 41 41 42 43 45 46 48 49 51 52 53 54 56 59 61 63 64 64 64 63 62 60 59 58 58 58 58 58 57
62 64 64 66 66 64 62 64 66 58 49 49 53 54 55 56 55 54 52 48 43 41 41 40 39 40 40 39 39 38 37 40 42 39 37 38 40 41 42 44 45 45 46 47 47 46 45 43 42 41 40 40 40 39 38 37 37 37 38 39 40 42 45 48 49 51 52 53 54 55 57 59 60 61 62 62 62 61 60 59 57 56 56 56 56 56
61 64 65 67 68 65 63 63 58 52 53 58 56 53 52 52 50 50 49 43 38 39 41 40 39 40 40 39 39 39 40 43 41 36 36 39 40 40 41 41 43 45 45 47 47 46 44 43 42 40 39 39 39 38 38 38 38 38 38 38 39 40 42 46 49 51 52 53 54 55 56 58 59 59 59 58 58 58 58 58 58 58 59 59 59 59
61 66 67 67 65 63 62 61 58 59 60 55 50 49 48 45 44 47 48 44 41 40 40 39 40 42 42 43 44 42 43 43 36 31 34 38 38 39 39 40 42 45 45 47 47 46 46 45 44 43 41 41 41 41 41 41 42 42 40 39 38 39 41 45 49 52 53 54 56 56 57 57 58 58 57 56 56 55 54 55 55 56 57 57 57 58
57 62 65 65 62 61 62 61 61 61 55 47 44 46 47 44 44 48 51 47 42 40 41 41 41 43 45 46 45 44 45 40 30 28 34 38 38 40 41 41 43 45 46 47 47 47 47 46 46 46 45 45 45 45 45 45 45 44 42 40 39 40 42 45 47 50 52 54 56 57 58 58 57 56 56 55 54 53 53 53 53 53 53 54 54 55
52 54 59 65 65 61 60 59 58 56 50 45 44 44 45 45 45 49 51 42 36 39 43 41 42 44 46 45 44 45 43 34 27 31 39 41 41 42 41 41 43 44 45 46 46 46 47 47 48 49 49 49 49 48 47 45 44 44 43 41 41 41 42 44 46 47 50 52 54 56 58 59 58 57 55 55 54 53 53 53 53 53 54 54 55 55
52 53 56 63 66 64 61 59 56 53 49 46 46 46 46 47 49 51 47 36 32 39 44 44 46 47 45 44 44 44 39 32 31 37 42 42 41 40 39 40 41 41 42 43 44 45 46 48 49 51 52 52 51 49 47 45 43 42 42 41 41 41 41 43 44 45 46 49 51 54 56 58 59 59 58 57 56 56 55 55 55 55 55 54 54 54
53 54 56 62 66 65 62 59 56 54 49 46 48 49 50 51 50 47 41 36 38 44 48 49 48 46 44 43 41 40 38 36 37 40 41 40 39 39 39 40 41 41 42 43 44 45 47 49 50 52 54 54 53 51 49 46 43 41 40 39 40 39 39 40 40 41 43 45 48 50 52 53 55 56 56 56 56 55 55 54 54 53 53 53 53 52
52 53 56 59 62 63 63 61 59 55 47 45 48 48 48 49 48 45 44 45 48 52 54 51 45 43 44 43 41 40 39 39 39 40 40 39 40 41 42 42 42 43 43 45 46 47 48 50 52 53 54 54 53 51 49 45 42 40 39 38 38 37 37 37 37 38 39 41 43 45 46 47 48 50 51 52 52 52 52 52 52 51 51 50 49 48
52 54 55 55 58 63 65 60 55 50 46 47 47 45 45 49 49 49 53 55 54 54 53 48 43 42 43 42 42 43 41 41 41 40 40 42 42 43 44 44 44 45 46 47 47 47 47 49 50 50 51 50 49 48 45 43 40 38 37 37 36 36 36 36 36 36 37 38 40 41 41 42 43 44 45 46 46 47 47 47 47 46 45 45 44 44
51 50 50 51 54 58 57 53 49 48 47 49 49 46 48 52 53 54 55 52 49 48 46 44 45 44 43 44 45 44 43 42 42 42 43 44 44 44 45 45 46 47 47 47 46 46 46 47 47 48 48 47 46 44 42 40 38 37 37 36 36 36 36 36 36 36 36 37 38 38 39 39 40 40 41 42 42 42 42 42 42 42 42 42 43 43
46 44 46 47 49 51 52 51 50 49 48 49 49 48 49 51 53 55 54 49 45 44 43 45 47 47 46 47 46 45 44 43 42 43 43 43 44 45 46 46 46 45 45 45 46 46 46 46 47 46 45 45 44 43 41 39 38 37 37 37 37 37 37 37 37 37 37 37 38 38 39 39 39 40 40 40 41 41 41 41 41 41 41 41 41 42
45 46 46 46 48 51 52 49 48 49 50 51 50 50 50 52 52 52 50 48 48 48 46 46 47 47 47 48 48 47 46 44 43 43 43 44 46 46 46 46 46 45 45 46 46 47 47 47 46 46 45 44 42 41 39 38 37 37 37 37 37 38 38 38 38 38 38 38 38 39 39 39 39 39 39 40 40 40 40 40 40 41 41 41 42 42
44 46 48 48 49 50 48 46 48 50 50 49 51 52 53 54 52 50 49 49 50 50 47 45 44 46 49 51 51 50 48 46 45 44 44 46 46 46 46 47 46 47 47 47 47 48 48 47 47 46 46 44 43 41 39 38 37 36 36 37 37 38 39 39 39 39 39 39 38 39 39 39 39 39 39 40 40 40 41 41 41 42 43 43 44 45
44 48 49 49 51 50 48 49 53 54 52 52 53 54 55 56 55 53 53 53 51 47 42 40 42 47 51 53 52 50 48 46 45 45 46 46 46 46 46 46 46 48 48 48 48 48 47 47 47 47 46 45 43 41 39 38 37 36 36 36 37 38 38 39 39 39 39 39 39 40 40 41 41 41 42 42 42 42 43 43 43 44 44 45 46 46
52 53 49 49 52 52 48 47 51 53 54 55 57 59 60 59 57 56 55 54 51 46 41 40 44 48 51 52 51 49 47 46 47 47 47 47 47 46 45 45 46 47 47 47 47 47 47 47 47 47 47 46 44 42 40 38 37 37 37 37 37 38 39 39 40 40 41 41 41 42 42 43 43 43 44 44 44 44 44 44 44 44 45 45 46 46
55 53 50 50 52 48 43 44 48 51 53 55 58 60 60 57 54 52 50 47 44 41 39 42 47 50 51 51 49 48 49 49 49 48 47 47 46 44 44 45 45 45 45 46 46 47 47 47 47 47 47 46 44 43 42 40 40 39 39 39 39 40 40 40 40 41 41 41 42 42 43 44 44 44 44 44 44 44 45 45 45 45 45 45 46 46
Wind_Direction
222 223 224 223 224 225 226 229 231 233 235 235 235 235 239 241 240 241 244 240 236 240 241 240 242 238 229 235 241 241 242 242 240 242 246 248 246 246 248 247 247 250 251 251 251 252 254 254 252 250 247 246 247 249 250 250 250 247 245 244 245 246 245 245 247 248 248 249 251 252 251 252 253 255 258 261 263 264 266 267 267 267 267 268 269 270
223 224 224 224 225 226 227 230 233 235 237 237 236 235 237 240 239 239 243 243 240 242 243 243 244 242 231 233 241 242 243 244 243 242 244 248 250 250 251 251 250 250 251 252 253 254 255 257 256 255 253 250 249 249 250 250 250 249 248 247 248 249 249 249 248 249 249 250 251 253 253 253 254 255 258 261 263 264 265 266 267 268 268 268 269 270
221 222 222 224 225 226 226 229 231 235 238 239 237 236 237 236 235 238 242 243 243 244 246 245 245 244 235 232 239 243 246 247 247 245 244 246 251 253 253 253 254 253 251 251 253 255 255 257 257 257 256 255 253 251 251 252 252 252 252 251 251 251 252 251 250 250 250 250 250 252 254 256 256 256 260 263 264 264 264 265 266 267 268 269 270 272
223 223 222 224 225 226 226 228 230 233 236 237 236 236 235 233 234 239 243 242 243 246 248 248 246 244 239 234 238 244 248 248 248 248 246 247 251 254 254 254 254 255 254 252 253 256 256 256 257 258 257 256 255 253 253 254 255 255 254 253 253 252 253 252 252 252 252 252 252 252 254 256 257 258 260 262 264 264 263 263 263 265 267 270 273 274
226 226 223 223 225 225 226 227 229 231 233 235 235 234 233 232 235 241 244 243 244 246 249 250 249 247 244 240 239 242 245 245 247 249 249 250 252 254 255 255 254 254 256 255 254 256 257 256 255 256 256 256 256 256 256 256 256 256 255 254 254 254 255 255 255 254 254 254 255 255 255 257 259 259 260 261 262 262 262 262 264 266 269 272 274 275
225 225 224 224 225 225 226 226 228 231 234 236 236 235 234 234 238 244 246 247 247 246 248 251 253 251 248 246 243 242 245 245 247 250 252 252 253 254 256 258 259 257 256 255 255 256 257 256 256 255 256 257 257 257 257 256 255 256 256 256 256 256 257 257 258 257 256 256 256 257 258 259 260 259 260 262 262 262 263 264 266 267 269 271 273 274
223 224 224 225 226 226 227 227 228 230 233 236 236 236 237 239 243 247 248 249 249 246 247 250 254 254 248 245 246 247 248 248 248 251 254 255 256 258 259 261 264 262 258 255 254 257 258 258 258 258 258 258 257 256 256 255 254 255 256 256 256 257 257 258 259 260 260 259 259 259 259 260 260 260 260 261 262 263 263 265 266 267 268 269 271 272
223 224 225 225 226 227 227 228 228 229 231 234 235 236 238 242 245 247 246 248 249 248 248 248 252 253 248 242 246 251 253 252 252 254 259 262 263 263 262 261 262 263 261 258 255 256 259 260 260 260 260 259 258 256 256 256 256 255 256 256 257 257 258 259 260 261 262 263 263 261 260 259 260 261 260 260 262 263 263 265 266 267 267 268 269 270
224 225 225 225 225 226 226 227 228 228 229 233 236 237 240 243 245 246 247 247 249 249 248 248 251 252 248 244 247 252 255 257 260 261 262 264 264 263 262 260 259 259 259 258 257 257 258 259 259 260 259 257 258 258 258 257 256 256 256 257 257 258 259 260 260 261 263 264 264 263 262 260 260 260 260 260 261 262 263 264 265 266 266 266 267 268
223 224 225 224 225 226 226 228 228 229 230 233 237 239 241 243 244 246 247 247 248 249 248 248 252 252 250 249 249 250 257 263 268 268 264 263 264 264 264 263 261 260 259 259 258 258 260 259 257 257 257 257 257 259 260 258 256 257 258 258 259 259 260 260 260 261 262 263 264 264 263 261 260 259 259 259 259 261 262 263 264 264 264 264 265 266
222 224 224 223 224 224 225 227 229 230 231 233 236 239 240 242 243 244 245 246 247 247 246 248 251 252 250 248 247 250 262 271 272 271 269 267 268 268 266 265 263 261 260 260 259 258 259 260 258 256 256 258 259 260 260 258 256 255 257 258 258 259 259 260 261 262 263 263 264 265 264 262 260 258 257 257 257 258 259 262 263 263 263 264 264 266
220 222 223 223 224 224 224 226 227 229 231 232 235 238 239 240 242 243 243 244 246 246 246 247 249 251 249 247 250 255 264 271 270 270 270 269 269 269 267 265 263 261 260 260 259 258 258 261 261 260 258 258 260 262 261 259 256 254 255 256 257 258 259 260 261 262 263 264 265 266 266 265 262 260 258 257 257 257 257 259 261 262 263 264 265 265
219 221 223 223 223 223 224 225 227 228 229 230 233 235 237 238 239 240 241 242 244 245 245 246 247 249 248 250 257 261 262 265 268 270 273 274 270 267 267 266 264 263 261 261 261 261 261 262 263 263 260 259 260 262 262 261 257 254 253 254 256 258 259 260 260 261 263 264 266 267 267 266 264 262 261 260 259 259 258 259 261 264 265 266 265 265
218 219 221 222 222 223 224 225 227 229 230 231 233 234 236 237 238 239 239 240 242 243 244 245 248 249 249 251 258 264 266 265 267 271 274 276 274 271 271 270 267 264 263 263 263 263 264 266 266 264 263 262 261 262 264 265 261 258 255 254 254 257 258 260 260 261 262 263 264 265 266 266 265 264 262 261 260 260 260 261 263 266 268 268 268 267
219 219 220 221 223 225 226 227 229 230 232 233 235 236 237 238 239 241 242 243 244 245 246 248 250 250 250 252 255 262 266 265 266 270 273 277 280 279 277 276 273 269 266 266 265 265 266 268 270 269 267 265 264 263 264 265 264 263 259 255 254 255 257 258 260 260 261 262 263 263 264 265 265 264 262 260 260 260 261 263 265 267 269 270 270 269
223 225 225 225 226 227 227 228 229 228 229 230 232 235 236 237 240 242 244 244 245 247 247 248 250 250 251 251 252 258 262 265 268 272 276 279 279 279 279 277 275 273 270 268 268 268 269 269 270 272 272 270 268 265 264 265 265 266 264 259 255 253 254 256 258 259 260 260 261 262 263 263 264 264 262 260 260 260 261 263 265 267 269 271 272 271
224 227 227 227 227 227 228 228 229 228 229 230 231 233 234 235 237 239 242 243 244 245 246 247 249 249 251 249 249 255 261 267 273 274 276 278 278 280 281 280 278 277 274 271 269 269 269 270 270 271 274 275 274 272 269 268 267 267 266 264 260 255 254 254 256 258 259 259 260 261 261 262 262 262 262 261 260 259 260 262 264 267 269 271 272 271
226 227 228 227 226 226 227 227 228 228 230 231 232 234 235 236 236 237 240 242 244 246 246 247 247 247 248 246 246 253 261 267 273 275 276 278 280 282 283 283 283 282 279 276 272 269 268 269 270 270 272 274 276 277 277 274 272 270 268 267 265 261 256 254 254 255 257 258 259 260 260 260 261 261 261 261 260 260 261 262 264 266 268 270 271 270
225 227 228 229 229 228 226 226 225 225 227 229 231 233 235 236 237 237 239 241 244 246 246 246 246 246 246 246 249 256 262 266 271 274 277 279 280 283 284 285 286 286 284 282 278 273 269 268 268 270 271 271 273 275 277 278 277 275 272 270 268 266 261 257 254 253 255 256 258 258 259 260 260 260 260 260 261 261 262 263 265 266 268 269 269 269
224 226 228 229 231 231 229 227 226 227 228 229 230 231 232 235 237 238 239 241 243 246 247 247 247 247 246 248 253 259 263 267 271 274 276 278 280 282 285 286 287 288 286 284 281 278 274 271 268 268 269 271 271 272 273 275 276 277 276 274 271 268 265 262 258 254 253 254 256 257 258 259 260 260 260 260 260 261 262 263 264 266 268 268 267 268
224 226 227 228 230 231 230 229 229 230 231 232 233 233 234 235 236 237 238 239 241 244 246 247 247 247 248 250 254 260 265 269 271 272 274 277 279 282 284 285 288 288 286 284 282 280 277 274 272 269 268 269 271 272 272 272 273 274 275 275 273 271 268 266 262 258 255 254 255 256 257 258 260 260 261 261 261 261 262 263 265 266 267 267 267 267
226 226 227 228 230 231 232 230 229 231 232 233 235 236 238 238 238 238 239 240 241 244 247 250 252 252 252 254 256 259 263 265 268 270 273 276 279 281 283 285 287 287 286 284 281 279 276 273 272 270 268 267 268 269 270 271 271 271 272 272 272 272 270 268 265 262 259 256 255 255 256 257 258 260 260 261 261 262 262 263 264 265 266 266 266 267
226 226 226 228 230 231 232 231 229 230 231 233 234 234 236 237 238 240 242 243 244 245 248 252 254 252 251 253 254 256 259 262 266 269 271 274 278 281 283 283 284 284 284 282 279 276 274 272 270 268 267 266 266 266 267 268 269 270 270 271 271 271 270 269 267 265 262 259 257 255 255 256 257 259 260 261 262 262 263 263 264 264 265 265 266 266
226 225 225 226 229 231 232 232 232 230 230 232 234 235 237 239 240 240 242 244 245 245 246 249 251 249 247 250 252 256 259 261 264 267 270 274 277 279 280 281 282 282 282 281 279 275 273 272 270 269 267 266 265 265 265 265 267 268 269 270 270 270 270 269 267 265 263 261 258 256 256 256 257 258 259 261 262 263 263 263 264 264 264 265 265 266
228 228 226 225 226 228 229 230 231 230 230 232 234 237 239 241 240 239 239 240 241 242 241 242 247 248 249 251 253 256 259 260 263 267 270 272 274 276 279 279 280 280 280 279 277 274 272 270 269 269 268 267 266 266 265 265 265 266 267 268 269 269 269 269 267 264 262 260 259 258 256 256 256 258 259 260 261 262 262 263 264 264 264 265 265 266
231 231 230 228 227 229 232 234 234 236 236 234 231 232 235 236 237 237 237 238 239 240 239 240 245 251 252 254 255 256 259 261 262 265 267 269 272 275 277 278 277 276 275 274 272 272 272 271 271 270 270 269 268 268 268 267 266 265 266 267 268 268 268 267 266 264 262 260 259 258 257 257 257 257 258 259 260 261 262 262 263 263 264 264 265 266
234 234 234 233 232 235 240 242 242 244 243 239 235 233 232 232 233 233 234 235 237 239 241 242 248 252 253 255 257 257 260 261 260 260 263 266 268 271 273 274 274 273 272 270 269 269 269 270 271 271 270 270 269 269 268 268 268 267 267 266 266 267 267 267 267 265 264 261 260 259 258 257 257 258 258 259 260 260 261 262 262 263 264 264 265 266
235 235 236 236 236 237 238 239 239 242 244 244 244 241 237 235 235 235 235 236 239 242 243 247 250 251 250 254 256 256 255 256 256 255 257 261 265 267 269 270 271 271 270 268 267 267 267 266 266 267 268 269 269 269 268 268 268 268 268 267 267 267 267 267 268 267 265 263 261 259 258 258 258 258 258 259 259 260 261 261 262 263 263 264 264 265
236 237 238 239 239 237 236 235 235 237 240 242 243 244 244 242 242 243 242 241 243 246 248 251 249 247 247 246 247 248 249 252 255 254 254 258 262 263 264 265 267 268 268 267 267 266 266 265 264 264 265 266 267 267 268 268 268 267 267 267 267 267 268 268 268 268 266 264 262 260 258 257 257 258 258 259 259 260 260 261 261 262 263 264 264 265
232 235 237 238 239 238 235 232 233 234 236 238 239 239 241 241 241 242 241 240 242 244 246 246 243 243 244 239 238 243 248 251 254 255 255 255 256 257 259 262 265 267 268 268 268 267 266 265 265 264 264 265 266 268 269 270 271 271 270 270 270 269 269 269 268 268 266 264 263 261 259 258 257 257 257 258 258 259 259 260 261 262 263 263 264 265
229 231 234 237 238 236 233 231 232 234 235 236 238 238 238 238 238 238 237 236 238 240 241 241 241 243 244 238 234 238 244 247 250 253 256 256 254 254 257 261 264 267 268 269 269 269 268 267 267 267 268 269 270 272 273 273 274 275 275 275 274 273 272 271 270 268 267 265 263 262 260 259 258 257 257 258 258 258 259 259 260 261 262 263 264 265
228 229 231 235 236 234 232 231 233 234 235 235 236 236 237 237 236 237 237 235 236 240 240 238 240 244 242 235 232 233 237 242 246 250 254 255 255 256 259 261 263 264 267 269 270 271 271 271 272 272 273 274 274 274 274 274 275 275 275 276 276 275 274 273 271 269 267 265 264 262 261 260 259 258 258 259 259 260 260 260 261 262 263 264 265 265
226 229 231 233 235 233 230 231 232 234 236 235 233 234 237 237 236 235 234 234 235 238 237 237 240 243 236 228 226 229 232 236 240 242 246 252 257 261 264 264 265 266 269 271 272 273 274 275 276 277 278 279 278 278 278 278 278 278 278 277 277 277 275 274 272 270 267 265 263 262 262 261 260 259 259 259 260 261 261 261 262 262 263 264 265 265
225 228 231 233 235 233 230 230 230 232 235 235 232 233 235 235 234 233 232 233 235 234 234 236 236 232 229 225 223 225 227 231 235 238 244 253 260 265 266 266 267 269 271 272 273 275 276 277 278 279 281 281 281 282 282 281 281 281 280 280 279 278 276 275 274 272 269 267 265 264 263 262 261 260 260 260 261 262 262 262 263 263 264 264 264 265
227 228 230 233 235 235 232 231 231 232 233 233 229 229 230 232 232 232 231 231 231 231 231 231 228 226 227 225 224 225 226 230 236 243 249 255 260 262 263 264 266 268 270 272 274 275 276 277 278 280 281 282 282 282 282 281 281 280 280 279 279 279 277 276 275 274 272 270 269 267 266 265 264 263 262 261 262 262 263 264 264 264 264 264 264 264
229 229 231 233 234 234 233 231 231 232 233 232 230 228 228 230 230 229 228 225 224 226 229 228 226 227 229 229 229 231 232 234 239 246 252 255 257 259 260 262 265 267 269 271 272 274 276 278 279 280 281 281 281 281 281 281 282 281 281 280 280 280 279 278 277 276 275 274 274 272 269 267 266 266 265 264 263 262 263 263 263 264 264 263 264 264
230 231 231 233 235 235 234 233 231 230 231 231 230 229 229 230 231 232 232 228 227 232 235 233 232 234 236 237 237 237 238 239 244 250 252 252 254 257 260 262 264 266 267 268 270 273 276 279 281 281 281 281 281 281 282 284 285 285 285 284 281 280 279 278 276 276 275 276 276 275 271 268 267 268 268 269 268 266 265 264 264 264 265 265 266 267
230 232 231 232 234 234 234 233 231 231 231 231 230 230 232 232 233 236 237 230 225 230 234 232 233 235 236 237 239 240 240 242 249 256 252 251 254 257 259 260 262 263 265 267 269 273 276 279 280 281 281 281 282 282 283 285 286 287 287 284 280 278 276 274 273 273 274 275 275 274 271 269 267 267 268 269 270 270 269 269 268 268 269 269 270 271
226 230 231 230 230 231 232 232 232 233 232 230 230 232 232 230 229 234 236 227 219 224 231 230 230 233 234 236 239 242 242 243 250 254 251 252 255 255 256 258 259 261 264 266 269 272 275 278 279 280 281 281 282 283 283 284 286 287 286 282 278 275 273 271 271 271 271 272 272 271 270 268 267 267 267 268 269 270 271 272 272 273 273 274 275 276
223 227 230 230 229 229 230 231 232 232 228 225 228 231 232 230 228 231 234 228 220 225 231 231 233 235 236 237 239 240 243 246 249 249 249 251 252 253 256 258 260 262 264 266 268 271 274 277 279 280 282 283 284 285 285 286 286 287 286 283 278 274 273 272 272 271 271 272 272 271 269 268 266 266 266 267 269 270 272 273 275 276 277 278 278 278
220 223 228 232 231 229 228 229 230 229 224 223 227 228 229 231 230 230 232 230 227 229 228 229 234 237 237 238 239 242 245 247 244 244 247 250 252 255 258 260 261 262 264 266 269 272 274 276 278 279 281 283 285 287 287 288 287 287 285 282 278 275 274 274 274 274 274 274 274 273 272 270 268 267 267 267 268 270 271 273 274 276 277 278 278 279
220 221 225 229 229 226 226 227 229 227 222 222 226 226 228 232 233 234 236 234 232 234 232 230 233 236 238 240 241 243 244 242 240 242 248 252 255 258 259 260 261 263 265 268 270 272 274 275 276 277 279 280 282 284 285 286 286 286 284 281 277 276 275 275 275 275 275 275 275 275 275 275 273 272 272 271 271 272 273 275 276 277 278 279 279 280
222 224 225 226 225 224 224 226 227 226 222 222 226 227 229 233 234 235 235 232 231 235 238 237 238 239 240 242 242 241 240 241 242 245 249 253 256 258 260 261 263 266 268 271 273 274 275 276 276 276 277 278 279 280 282 283 283 283 282 279 278 276 275 275 275 275 275 275 275 276 277 278 277 277 276 276 276 277 278 279 279 280 281 281 281 282
225 225 225 225 225 225 225 225 226 225 222 221 224 228 231 232 232 230 229 228 230 235 240 243 244 242 241 241 241 241 241 243 245 248 251 254 256 259 262 265 267 270 273 275 276 277 276 276 275 275 275 276 278 279 280 281 281 280 279 277 276 275 274 274 274 274 274 274 274 275 276 277 278 278 278 278 279 279 280 280 280 281 281 282 283 283
228 226 226 227 229 229 228 227 227 225 221 218 220 225 230 230 230 229 229 229 233 237 241 244 244 242 241 240 241 242 244 245 247 249 251 254 258 262 267 270 273 275 276 278 278 278 276 274 274 274 275 276 278 279 280 280 279 277 276 274 274 273 273 272 272 273 273 273 273 274 275 276 277 278 279 279 279 280 280 281 281 282 283 283 284 285
226 227 228 230 231 231 230 229 227 226 224 222 223 227 231 232 232 231 230 232 238 241 242 243 245 245 244 243 243 244 245 246 248 250 253 258 262 266 270 272 274 275 277 278 278 277 275 273 273 274 276 277 278 279 280 280 279 277 276 275 274 274 273 273 273 273 273 274 275 276 277 277 278 278 279 280 280 281 281 281 282 282 283 283 284 284
224 226 229 230 229 229 226 223 222 224 225 225 226 229 233 236 237 236 235 236 239 241 240 242 245 247 246 244 244 245 247 249 251 254 257 260 263 266 268 269 271 273 274 275 275 274 274 274 275 276 277 277 278 278 279 279 279 278 277 276 275 275 275 275 275 276 277 277 278 279 280 280 280 280 280 280 280 281 281 281 281 281 281 281 281 282
226 228 230 230 229 229 225 220 219 221 220 221 225 229 233 237 240 241 241 241 241 240 240 241 244 245 244 244 244 246 248 251 253 255 257 259 261 263 265 267 270 272 273 273 273 273 274 275 276 277 277 277 277 277 277 277 278 277 277 277 276 277 277 278 278 279 280 280 281 281 282 281 281 281 280 280 280 280 279 279 280 280 280 279 279 280
233 235 234 231 230 229 226 221 220 220 219 221 225 229 232 237 240 242 243 244 243 240 237 238 241 242 243 244 245 246 249 250 252 253 255 256 259 261 264 267 269 271 271 272 273 273 274 275 275 276 277 277 278 278 278 278 278 278 278 278 277 278 278 279 279 280 280 281 281 281 280 280 280 280 279 279 279 279 279 279 279 279 279 279 279 279
236 236 233 231 229 228 226 225 225 225 225 226 228 229 231 233 236 241 244 247 246 242 238 239 240 241 243 244 245 246 248 248 249 250 252 255 258 261 264 266 267 269 271 272 273 274 274 274 275 276 276 277 278 279 279 279 279 278 278 278 278 278 278 279 280 280 280 281 280 280 280 279 279 279 279 279 279 278 278 278 277 277 277 277 278 278
236 235 235 234 233 231 231 233 232 231 231 231 231 233 235 237 239 243 246 247 245 241 239 239 240 242 244 245 245 246 246 246 247 249 251 255 258 261 264 265 266 268 270 272 273 274 274 274 274 275 276 277 278 279 279 280 280 279 279 279 278 278 279 279 280 280 280 280 279 279 279 279 279 279 279 279 278 278 277 276 276 275 275 276 276 277
Height
5766 5767 5769 5776 5782 5785 5788 5792 5795 5798 5799 5800 5804 5810 5811 5812 5817 5816 5816 5820 5823 5821 5821 5823 5824 5830 5837 5837 5837 5838 5838 5840 5844 5845 5846 5848 5850 5851 5852 5853 5854 5855 5856 5856 5856 5857 5858 5860 5861 5861 5862 5863 5864 5866 5867 5869 5870 5871 5872 5873 5873 5874 5875 5876 5877 5877 5877 5878 5878 5878 5878 5878 5879 5880 5880 5880 5880 5880 5880 5879 5879 5879 5879 5878 5878 5878
5760 5760 5768 5777 5781 5784 5787 5790 5792 5794 5795 5797 5802 5807 5807 5809 5813 5813 5813 5818 5821 5819 5819 5821 5821 5826 5833 5835 5834 5834 5835 5837 5841 5843 5845 5846 5847 5849 5850 5850 5851 5852 5853 5853 5853 5854 5856 5858 5859 5860 5861 5861 5862 5863 5864 5866 5867 5868 5869 5870 5871 5871 5872 5874 5874 5874 5875 5875 5875 5875 5876 5876 5877 5877 5878 5878 5878 5878 5877 5877 5876 5876 5876 5875 5875 5875
5751 5758 5770 5775 5777 5780 5783 5785 5788 5790 5791 5793 5799 5802 5803 5806 5808 5809 5811 5816 5818 5816 5816 5818 5818 5821 5829 5832 5831 5832 5833 5836 5839 5841 5842 5843 5843 5844 5846 5848 5849 5850 5850 5850 5850 5851 5854 5855 5857 5858 5859 5859 5860 5861 5861 5863 5864 5865 5867 5867 5868 5869 5869 5870 5871 5871 5872 5872 5872 5872 5873 5874 5875 5875 5876 5875 5875 5875 5875 5874 5874 5873 5873 5873 5872 5872
5749 5760 5768 5769 5771 5774 5777 5780 5783 5785 5786 5788 5793 5797 5799 5801 5805 5807 5809 5811 5814 5813 5812 5814 5814 5817 5824 5828 5829 5830 5832 5834 5835 5837 5838 5840 5840 5841 5842 5845 5846 5846 5848 5848 5848 5848 5850 5852 5853 5855 5857 5857 5857 5858 5859 5860 5862 5863 5864 5864 5865 5865 5865 5866 5867 5868 5869 5869 5869 5870 5871 5871 5872 5873 5873 5873 5873 5872 5871 5871 5871 5870 5870 5870 5869 5869
5753 5761 5762 5763 5765 5769 5773 5775 5778 5781 5782 5784 5789 5793 5795 5798 5803 5805 5805 5807 5811 5810 5809 5810 5810 5813 5821 5825 5827 5828 5828 5830 5832 5833 5834 5836 5837 5838 5839 5840 5842 5844 5845 5846 5845 5845 5847 5849 5850 5851 5853 5853 5854 5856 5857 5858 5858 5859 5859 5860 5861 5861 5862 5862 5864 5865 5865 5866 5866 5867 5868 5869 5870 5870 5870 5870 5870 5869 5868 5868 5867 5867 5867 5867 5867 5866
5750 5753 5753 5757 5760 5764 5768 5771 5775 5778 5779 5782 5785 5789 5793 5796 5800 5802 5802 5804 5806 5806 5806 5808 5807 5808 5817 5822 5823 5825 5825 5827 5830 5829 5830 5833 5834 5835 5837 5838 5839 5841 5842 5843 5843 5842 5843 5845 5846 5847 5849 5850 5852 5853 5854 5854 5854 5854 5855 5856 5857 5858 5859 5860 5860 5861 5861 5862 5863 5865 5866 5867 5867 5867 5867 5867 5866 5865 5865 5865 5864 5864 5864 5864 5863 5863
5741 5743 5747 5753 5757 5761 5764 5767 5773 5775 5777 5779 5781 5786 5790 5793 5797 5798 5799 5800 5800 5802 5803 5806 5805 5803 5810 5818 5820 5821 5823 5824 5827 5827 5828 5830 5831 5833 5835 5836 5836 5838 5838 5840 5840 5839 5840 5842 5844 5844 5846 5847 5849 5849 5849 5849 5850 5851 5851 5852 5853 5854 5855 5856 5857 5857 5858 5858 5860 5861 5863 5863 5863 5864 5865 5863 5862 5861 5862 5862 5861 5861 5861 5860 5860 5859
5734 5738 5743 5748 5753 5756 5759 5764 5769 5771 5773 5775 5777 5782 5787 5790 5792 5794 5795 5795 5795 5798 5800 5803 5804 5800 5803 5814 5819 5819 5820 5821 5823 5826 5827 5828 5829 5831 5832 5833 5833 5834 5835 5835 5837 5837 5837 5839 5841 5842 5843 5844 5845 5845 5845 5845 5847 5847 5847 5848 5850 5851 5852 5853 5854 5854 5855 5855 5856 5857 5859 5859 5859 5860 5861 5859 5857 5857 5858 5858 5858 5857 5857 5856 5856 5855
5732 5734 5738 5744 5747 5749 5755 5761 5764 5766 5769 5770 5773 5780 5784 5785 5787 5789 5791 5792 5792 5794 5796 5800 5802 5799 5798 5808 5817 5817 5816 5819 5821 5824 5825 5824 5825 5826 5827 5828 5829 5830 5831 5831 5833 5833 5833 5835 5837 5839 5839 5839 5840 5840 5841 5842 5843 5843 5843 5844 5846 5847 5848 5849 5850 5850 5851 5852 5851 5852 5854 5855 5856 5856 5856 5855 5853 5853 5854 5854 5854 5853 5853 5853 5852 5851
5725 5729 5735 5739 5740 5747 5755 5757 5759 5762 5765 5767 5771 5776 5780 5780 5783 5785 5786 5788 5789 5788 5792 5797 5799 5799 5796 5801 5812 5814 5814 5817 5819 5820 5821 5820 5820 5821 5822 5823 5825 5826 5827 5828 5829 5830 5830 5830 5832 5834 5834 5835 5835 5836 5837 5838 5838 5839 5839 5841 5842 5843 5844 5844 5845 5846 5847 5847 5847 5848 5850 5852 5852 5851 5851 5850 5849 5849 5849 5849 5849 5848 5848 5848 5848 5847
5720 5725 5728 5730 5736 5745 5750 5751 5754 5758 5760 5764 5768 5771 5774 5776 5778 5781 5782 5784 5784 5784 5789 5794 5795 5796 5794 5795 5805 5813 5814 5814 5815 5815 5816 5817 5817 5817 5818 5819 5820 5822 5823 5824 5824 5826 5827 5826 5827 5828 5829 5830 5831 5832 5833 5833 5834 5834 5835 5836 5837 5838 5839 5839 5841 5841 5842 5842 5843 5844 5846 5847 5847 5847 5846 5846 5845 5845 5845 5845 5844 5844 5843 5844 5844 5844
5715 5717 5719 5726 5734 5740 5741 5743 5748 5751 5755 5761 5764 5767 5769 5772 5774 5776 5777 5779 5779 5781 5786 5789 5790 5791 5791 5793 5800 5810 5813 5811 5811 5811 5811 5813 5814 5814 5814 5815 5816 5817 5819 5820 5820 5821 5823 5823 5823 5824 5825 5826 5826 5827 5829 5830 5830 5830 5831 5832 5832 5833 5834 5835 5836 5837 5837 5837 5838 5840 5841 5842 5842 5842 5842 5842 5841 5841 5841 5841 5839 5839 5839 5840 5840 5840
5709 5712 5717 5724 5729 5731 5733 5738 5742 5745 5751 5756 5759 5762 5763 5765 5768 5768 5771 5773 5774 5778 5781 5782 5783 5784 5789 5794 5796 5803 5809 5808 5807 5808 5808 5809 5810 5810 5811 5812 5813 5814 5815 5816 5817 5818 5819 5819 5820 5820 5821 5821 5822 5823 5825 5826 5826 5826 5827 5827 5828 5829 5829 5830 5831 5832 5832 5832 5834 5835 5836 5837 5837 5837 5838 5838 5837 5837 5837 5836 5835 5835 5835 5836 5836 5835
5703 5707 5711 5716 5720 5723 5727 5732 5737 5742 5749 5753 5755 5756 5757 5759 5760 5761 5764 5767 5769 5772 5774 5776 5775 5778 5788 5795 5794 5797 5804 5805 5804 5805 5805 5805 5806 5807 5808 5809 5810 5812 5812 5813 5814 5814 5815 5815 5816 5816 5816 5817 5818 5819 5820 5821 5822 5822 5823 5823 5824 5824 5825 5825 5826 5827 5827 5828 5828 5829 5830 5831 5831 5832 5833 5833 5833 5833 5833 5832 5831 5831 5831 5831 5831 5831
5696 5696 5701 5709 5714 5720 5725 5729 5735 5743 5747 5749 5750 5751 5752 5753 5756 5759 5761 5763 5766 5769 5770 5771 5771 5778 5788 5792 5793 5794 5797 5800 5801 5801 5802 5802 5803 5804 5804 5805 5806 5807 5808 5809 5810 5811 5811 5812 5812 5812 5812 5813 5814 5815 5816 5817 5818 5819 5819 5819 5820 5820 5820 5820 5821 5822 5822 5823 5823 5823 5824 5825 5826 5827 5828 5828 5828 5829 5829 5828 5828 5827 5827 5827 5827 5827
5694 5695 5703 5710 5713 5718 5722 5723 5730 5736 5736 5738 5741 5741 5744 5750 5754 5757 5757 5759 5763 5763 5764 5766 5769 5778 5785 5786 5789 5790 5792 5796 5797 5798 5799 5799 5800 5800 5801 5802 5802 5803 5804 5805 5806 5807 5808 5808 5808 5808 5808 5809 5810 5810 5811 5812 5814 5814 5815 5815 5815 5815 5815 5815 5816 5816 5817 5818 5818 5818 5819 5820 5820 5821 5822 5823 5823 5824 5824 5823 5823 5822 5822 5823 5822 5822
5692 5695 5702 5707 5710 5714 5717 5720 5726 5729 5728 5731 5733 5733 5740 5747 5749 5749 5750 5754 5756 5754 5757 5763 5768 5775 5778 5780 5785 5786 5788 5792 5793 5793 5795 5795 5796 5797 5798 5798 5798 5799 5800 5801 5802 5803 5803 5804 5804 5805 5805 5805 5806 5806 5807 5807 5809 5810 5810 5810 5811 5811 5811 5811 5811 5812 5812 5813 5813 5814 5814 5814 5815 5815 5816 5817 5817 5818 5818 5818 5818 5817 5818 5818 5817 5817
5689 5691 5696 5700 5704 5708 5711 5716 5720 5720 5722 5725 5728 5733 5741 5742 5740 5744 5747 5748 5749 5749 5754 5761 5764 5769 5771 5775 5781 5783 5785 5787 5788 5789 5789 5790 5792 5793 5794 5794 5794 5795 5795 5796 5797 5798 5799 5800 5800 5801 5801 5802 5802 5802 5803 5803 5803 5804 5805 5805 5806 5806 5806 5806 5806 5807 5807 5807 5808 5809 5809 5809 5810 5810 5811 5811 5811 5812 5813 5813 5813 5812 5813 5813 5812 5811
5683 5687 5691 5695 5698 5702 5706 5708 5708 5710 5715 5719 5725 5732 5735 5733 5734 5740 5741 5742 5745 5746 5750 5756 5759 5761 5766 5773 5777 5779 5781 5782 5782 5783 5784 5785 5787 5788 5790 5790 5790 5791 5791 5791 5792 5793 5794 5795 5796 5796 5797 5798 5798 5798 5798 5798 5799 5799 5799 5800 5800 5801 5801 5801 5801 5802 5802 5802 5803 5804 5804 5804 5805 5805 5805 5806 5806 5807 5808 5808 5807 5807 5807 5808 5806 5805
5679 5683 5686 5690 5693 5697 5699 5699 5701 5706 5710 5714 5720 5725 5726 5725 5729 5733 5735 5738 5742 5742 5746 5751 5752 5755 5765 5772 5773 5774 5777 5777 5777 5778 5778 5780 5782 5783 5784 5785 5785 5786 5786 5787 5787 5787 5788 5789 5791 5791 5792 5792 5793 5793 5794 5794 5794 5794 5794 5794 5794 5795 5795 5796 5796 5797 5797 5797 5798 5799 5799 5799 5800 5800 5800 5800 5801 5802 5802 5802 5801 5801 5802 5801 5800 5799
5674 5677 5680 5684 5685 5687 5689 5694 5701 5706 5708 5711 5715 5718 5719 5720 5723 5726 5729 5733 5736 5736 5740 5743 5745 5753 5763 5768 5769 5771 5773 5772 5772 5773 5773 5774 5776 5778 5778 5779 5780 5781 5781 5782 5783 5783 5783 5784 5785 5786 5786 5787 5787 5787 5788 5788 5789 5789 5789 5789 5789 5789 5789 5790 5791 5791 5791 5792 5793 5794 5794 5794 5794 5794 5794 5794 5794 5795 5796 5796 5796 5796 5795 5794 5793 5794
5669 5671 5675 5677 5678 5681 5686 5693 5699 5701 5703 5708 5711 5713 5715 5717 5719 5721 5723 5729 5732 5732 5737 5740 5742 5753 5762 5763 5765 5768 5768 5767 5768 5769 5769 5768 5770 5772 5773 5774 5775 5775 5776 5777 5778 5778 5779 5779 5779 5780 5781 5781 5782 5782 5782 5783 5783 5783 5783 5783 5783 5783 5784 5784 5785 5785 5786 5786 5787 5788 5789 5788 5788 5788 5788 5788 5788 5789 5790 5790 5790 5789 5789 5788 5787 5787
5665 5667 5670 5672 5674 5677 5681 5686 5690 5694 5700 5703 5702 5705 5709 5711 5715 5718 5720 5726 5728 5729 5736 5737 5737 5748 5757 5757 5760 5762 5762 5764 5764 5764 5765 5763 5764 5766 5768 5769 5769 5770 5771 5771 5772 5773 5773 5774 5774 5774 5775 5775 5776 5776 5777 5777 5777 5777 5778 5778 5778 5778 5778 5778 5778 5778 5779 5780 5780 5781 5782 5782 5782 5782 5782 5782 5782 5782 5783 5783 5783 5782 5782 5781 5781 5781
5660 5661 5663 5666 5668 5670 5676 5681 5684 5688 5693 5693 5696 5701 5704 5707 5714 5716 5717 5722 5722 5725 5733 5731 5729 5742 5752 5752 5755 5758 5758 5760 5759 5758 5760 5759 5759 5760 5761 5763 5764 5764 5766 5766 5767 5768 5768 5768 5768 5768 5769 5769 5769 5770 5771 5771 5771 5771 5772 5772 5772 5773 5772 5772 5772 5772 5772 5773 5773 5774 5775 5775 5776 5776 5776 5776 5776 5776 5776 5776 5776 5775 5775 5775 5775 5774
5655 5655 5656 5659 5661 5664 5669 5672 5675 5680 5685 5689 5695 5699 5701 5706 5709 5708 5711 5713 5712 5718 5726 5722 5723 5738 5747 5748 5752 5754 5753 5754 5754 5754 5755 5755 5755 5755 5755 5757 5758 5759 5760 5761 5761 5761 5761 5762 5762 5762 5763 5763 5763 5764 5764 5765 5765 5765 5766 5766 5766 5766 5766 5766 5766 5765 5766 5766 5766 5767 5767 5768 5769 5769 5769 5769 5769 5769 5769 5769 5769 5768 5768 5768 5768 5767
5650 5650 5651 5652 5654 5656 5661 5666 5672 5678 5683 5686 5689 5691 5694 5697 5698 5700 5704 5703 5704 5714 5718 5712 5719 5736 5743 5743 5747 5748 5747 5747 5749 5750 5750 5750 5750 5749 5749 5750 5751 5753 5754 5754 5755 5755 5755 5756 5756 5756 5757 5757 5757 5758 5758 5758 5759 5759 5759 5759 5760 5760 5760 5760 5760 5759 5759 5759 5759 5760 5760 5761 5761 5762 5762 5762 5762 5762 5762 5762 5761 5761 5761 5761 5761 5760
5644 5645 5646 5648 5652 5657 5661 5667 5674 5678 5680 5681 5683 5686 5687 5687 5688 5692 5693 5692 5702 5711 5707 5708 5722 5734 5737 5738 5740 5742 5741 5741 5743 5744 5744 5744 5744 5743 5743 5744 5745 5747 5748 5749 5750 5750 5750 5750 5750 5750 5750 5751 5751 5751 5751 5752 5752 5752 5753 5753 5753 5753 5753 5753 5753 5753 5753 5753 5753 5753 5754 5754 5754 5755 5755 5755 5755 5755 5755 5755 5755 5755 5755 5754 5754 5754
5638 5638 5642 5647 5651 5655 5659 5664 5669 5673 5675 5678 5682 5684 5685 5685 5686 5687 5686 5694 5706 5705 5701 5712 5725 5727 5731 5735 5734 5735 5736 5734 5735 5738 5737 5738 5738 5737 5738 5738 5739 5741 5742 5743 5744 5744 5745 5745 5745 5746 5745 5745 5745 5745 5746 5746 5746 5746 5746 5746 5746 5746 5747 5747 5747 5747 5747 5747 5747 5747 5747 5747 5747 5747 5748 5748 5748 5748 5748 5748 5748 5748 5747 5747 5747 5747
5632 5633 5640 5645 5646 5649 5655 5658 5662 5666 5669 5671 5675 5679 5682 5684 5685 5686 5690 5701 5704 5698 5702 5717 5719 5717 5726 5730 5726 5727 5728 5727 5729 5730 5730 5732 5732 5732 5732 5733 5734 5735 5736 5737 5738 5739 5740 5740 5740 5741 5740 5740 5740 5740 5740 5740 5740 5740 5740 5740 5740 5740 5740 5741 5741 5741 5741 5741 5740 5740 5740 5740 5740 5741 5741 5741 5741 5741 5741 5741 5741 5741 5740 5740 5740 5740
5627 5630 5636 5639 5641 5646 5650 5652 5656 5659 5661 5663 5666 5670 5674 5676 5679 5682 5689 5697 5695 5694 5704 5711 5708 5711 5720 5721 5718 5720 5721 5722 5724 5723 5724 5726 5726 5726 5727 5727 5728 5729 5730 5731 5732 5734 5735 5735 5735 5735 5735 5735 5735 5735 5735 5735 5735 5735 5735 5735 5734 5734 5734 5734 5734 5734 5734 5733 5733 5733 5733 5733 5733 5733 5733 5734 5734 5734 5734 5734 5734 5733 5733 5733 5733 5733
5623 5627 5633 5637 5638 5640 5644 5648 5651 5652 5654 5657 5660 5663 5666 5669 5673 5677 5684 5689 5687 5690 5700 5700 5698 5706 5714 5713 5713 5715 5715 5717 5718 5717 5718 5720 5719 5720 5721 5722 5723 5723 5724 5726 5727 5728 5729 5729 5729 5729 5729 5730 5730 5730 5730 5730 5730 5730 5729 5729 5729 5728 5728 5728 5727 5727 5727 5727 5726 5726 5726 5726 5726 5726 5726 5727 5727 5726 5726 5726 5726 5726 5726 5726 5725 5725
5620 5624 5629 5630 5630 5633 5641 5644 5644 5646 5648 5648 5650 5655 5660 5665 5670 5675 5681 5682 5682 5688 5694 5692 5694 5705 5710 5708 5710 5711 5711 5712 5713 5713 5713 5711 5711 5713 5715 5717 5718 5718 5720 5721 5722 5722 5722 5723 5724 5724 5724 5724 5724 5725 5725 5725 5725 5724 5724 5723 5723 5722 5721 5721 5720 5720 5719 5719 5719 5719 5719 5719 5719 5719 5719 5719 5719 5719 5719 5719 5719 5719 5719 5718 5718 5717
5616 5619 5622 5623 5624 5631 5636 5636 5638 5640 5636 5634 5643 5654 5659 5663 5667 5671 5673 5675 5678 5683 5685 5686 5694 5703 5704 5703 5705 5705 5706 5707 5707 5706 5705 5704 5705 5708 5710 5712 5713 5714 5716 5716 5716 5717 5717 5717 5718 5718 5719 5719 5719 5720 5720 5720 5719 5719 5718 5718 5717 5716 5715 5714 5713 5713 5712 5712 5712 5712 5712 5711 5712 5712 5712 5712 5712 5711 5712 5712 5712 5711 5711 5711 5710 5710
5610 5614 5616 5618 5621 5624 5626 5629 5631 5626 5622 5632 5649 5656 5657 5659 5662 5664 5667 5671 5675 5678 5680 5685 5693 5696 5695 5697 5698 5698 5699 5700 5699 5699 5701 5702 5704 5705 5706 5708 5709 5710 5711 5711 5711 5712 5712 5713 5713 5713 5714 5714 5714 5715 5714 5714 5713 5713 5712 5711 5710 5709 5708 5707 5707 5706 5705 5705 5705 5705 5705 5704 5704 5704 5704 5704 5704 5704 5705 5704 5704 5704 5704 5704 5703 5703
5604 5607 5610 5613 5614 5615 5621 5623 5618 5614 5624 5641 5649 5648 5648 5652 5656 5659 5663 5665 5668 5672 5677 5681 5685 5687 5688 5690 5690 5691 5693 5693 5693 5696 5699 5700 5701 5702 5703 5704 5705 5706 5706 5706 5707 5707 5707 5708 5708 5709 5709 5709 5709 5709 5709 5708 5708 5707 5706 5705 5704 5703 5702 5701 5700 5700 5699 5699 5699 5699 5698 5697 5697 5697 5697 5697 5698 5698 5698 5698 5697 5697 5697 5696 5696 5695
5596 5600 5604 5606 5605 5607 5611 5609 5608 5619 5633 5638 5637 5638 5643 5647 5651 5653 5654 5657 5662 5667 5670 5674 5678 5680 5682 5684 5685 5687 5688 5688 5689 5693 5696 5696 5697 5698 5699 5700 5701 5701 5702 5702 5703 5702 5702 5703 5703 5704 5704 5704 5704 5704 5703 5703 5702 5701 5700 5699 5698 5696 5695 5695 5694 5693 5693 5693 5693 5693 5692 5691 5690 5689 5690 5690 5691 5691 5692 5692 5691 5691 5690 5690 5690 5689
5587 5592 5596 5596 5597 5601 5603 5604 5613 5623 5624 5623 5629 5637 5641 5646 5650 5651 5651 5655 5661 5663 5665 5670 5675 5676 5678 5680 5681 5682 5683 5682 5685 5690 5692 5691 5693 5694 5696 5697 5696 5696 5697 5697 5697 5698 5698 5698 5698 5699 5699 5699 5699 5699 5699 5698 5697 5696 5695 5693 5692 5691 5689 5688 5687 5686 5686 5687 5686 5686 5685 5685 5684 5683 5683 5683 5683 5683 5684 5684 5685 5684 5684 5684 5684 5684
5580 5584 5587 5589 5592 5597 5599 5602 5609 5610 5611 5622 5635 5639 5641 5647 5650 5648 5646 5649 5653 5657 5661 5665 5668 5670 5672 5674 5674 5676 5677 5677 5683 5688 5687 5686 5689 5691 5691 5692 5691 5691 5692 5692 5693 5694 5693 5692 5693 5693 5693 5694 5694 5693 5693 5693 5691 5690 5689 5687 5686 5685 5683 5682 5681 5680 5681 5680 5680 5679 5679 5678 5678 5677 5677 5676 5676 5676 5676 5677 5677 5677 5677 5677 5678 5677
5574 5578 5582 5584 5585 5589 5591 5596 5600 5604 5614 5629 5636 5636 5638 5643 5643 5641 5638 5639 5646 5652 5655 5658 5661 5663 5664 5667 5669 5671 5671 5674 5681 5685 5681 5681 5684 5684 5684 5686 5686 5687 5687 5688 5689 5689 5688 5688 5688 5688 5688 5688 5687 5687 5687 5686 5685 5684 5682 5681 5680 5678 5677 5676 5675 5675 5675 5674 5673 5673 5673 5672 5672 5671 5671 5671 5671 5671 5671 5671 5671 5671 5671 5671 5671 5671
5567 5571 5574 5575 5577 5583 5587 5591 5596 5604 5616 5627 5630 5631 5634 5636 5637 5635 5632 5637 5646 5649 5650 5654 5656 5657 5659 5662 5664 5665 5666 5672 5679 5678 5674 5674 5676 5677 5679 5681 5681 5682 5683 5683 5683 5683 5683 5682 5682 5682 5682 5681 5680 5680 5679 5679 5679 5677 5676 5675 5674 5672 5671 5670 5669 5669 5669 5668 5668 5667 5667 5667 5666 5666 5666 5666 5665 5666 5666 5665 5665 5665 5665 5665 5665 5664
5561 5564 5566 5568 5573 5579 5583 5586 5593 5603 5614 5621 5624 5626 5628 5629 5628 5626 5629 5637 5644 5644 5646 5649 5650 5652 5655 5657 5658 5660 5664 5670 5672 5669 5667 5668 5670 5672 5674 5675 5676 5677 5677 5677 5678 5678 5677 5677 5676 5676 5675 5674 5674 5673 5672 5672 5672 5671 5670 5669 5667 5666 5665 5664 5664 5664 5663 5663 5662 5661 5661 5661 5661 5661 5660 5660 5660 5661 5660 5660 5660 5659 5659 5659 5658 5658
5554 5557 5560 5563 5569 5575 5580 5585 5591 5598 5608 5615 5616 5618 5620 5620 5620 5623 5629 5636 5638 5637 5639 5641 5644 5648 5650 5651 5654 5657 5660 5663 5663 5662 5662 5664 5666 5667 5668 5669 5670 5670 5671 5671 5672 5671 5671 5671 5670 5670 5669 5669 5668 5667 5666 5666 5665 5664 5664 5663 5661 5661 5659 5659 5658 5658 5658 5657 5657 5656 5655 5655 5655 5655 5655 5654 5655 5654 5654 5654 5653 5653 5653 5652 5652 5651
5551 5553 5555 5559 5565 5571 5574 5578 5584 5593 5606 5611 5611 5612 5615 5615 5616 5621 5625 5628 5630 5630 5631 5635 5641 5645 5646 5647 5650 5652 5653 5655 5656 5657 5658 5659 5660 5661 5661 5662 5663 5664 5664 5665 5665 5665 5665 5664 5663 5663 5663 5662 5661 5661 5660 5659 5658 5658 5657 5656 5656 5655 5654 5653 5653 5652 5652 5651 5651 5650 5650 5649 5649 5649 5648 5648 5648 5648 5647 5647 5647 5646 5646 5645 5645 5644
5544 5547 5551 5557 5562 5563 5565 5572 5583 5595 5604 5606 5606 5609 5611 5610 5611 5613 5615 5618 5623 5626 5628 5634 5638 5640 5641 5643 5644 5645 5647 5649 5650 5652 5653 5653 5653 5654 5654 5656 5657 5658 5658 5659 5659 5659 5659 5658 5657 5657 5656 5656 5655 5654 5653 5653 5652 5651 5651 5650 5650 5649 5648 5648 5647 5647 5646 5646 5645 5645 5644 5644 5643 5643 5643 5642 5642 5642 5642 5641 5640 5640 5640 5639 5639 5638
5540 5547 5552 5556 5558 5560 5567 5576 5585 5592 5596 5598 5601 5603 5603 5603 5605 5608 5610 5616 5620 5624 5628 5631 5632 5633 5635 5636 5637 5639 5642 5643 5644 5646 5647 5647 5648 5649 5649 5650 5652 5652 5652 5652 5653 5653 5653 5652 5652 5651 5651 5650 5649 5648 5647 5647 5646 5645 5645 5644 5644 5643 5642 5642 5641 5641 5641 5640 5640 5640 5639 5639 5639 5638 5638 5637 5637 5636 5636 5636 5635 5635 5634 5633 5633 5632
5542 5547 5549 5550 5554 5558 5565 5572 5580 5586 5590 5593 5596 5596 5597 5599 5601 5603 5608 5614 5618 5621 5624 5625 5625 5627 5629 5630 5632 5634 5635 5637 5639 5640 5641 5643 5643 5644 5644 5645 5645 5646 5646 5646 5647 5647 5647 5647 5646 5646 5645 5644 5643 5643 5642 5641 5641 5640 5640 5639 5639 5638 5637 5637 5636 5636 5636 5635 5635 5635 5635 5634 5634 5634 5633 5633 5632 5632 5631 5630 5630 5629 5628 5628 5627 5626
5537 5539 5540 5544 5548 5550 5556 5565 5574 5579 5582 5586 5589 5592 5595 5596 5598 5601 5606 5611 5612 5614 5616 5618 5619 5621 5623 5625 5626 5628 5629 5631 5633 5634 5636 5637 5637 5637 5638 5638 5639 5640 5640 5640 5641 5641 5641 5641 5641 5640 5640 5639 5638 5637 5637 5636 5636 5635 5635 5635 5634 5634 5633 5633 5632 5632 5632 5631 5631 5630 5630 5630 5629 5629 5629 5628 5627 5627 5626 5625 5625 5624 5623 5623 5622 5621
5534 5536 5537 5540 5543 5546 5555 5565 5568 5569 5574 5580 5584 5587 5591 5592 5595 5598 5601 5603 5605 5607 5609 5612 5614 5616 5617 5619 5620 5621 5623 5625 5626 5627 5629 5629 5630 5631 5631 5631 5633 5633 5633 5634 5635 5635 5635 5635 5635 5635 5634 5633 5633 5632 5631 5631 5631 5631 5631 5631 5630 5630 5629 5629 5628 5628 5628 5627 5627 5626 5625 5625 5624 5624 5623 5623 5622 5622 5621 5620 5620 5619 5618 5617 5616 5616
5530 5530 5532 5537 5540 5544 5551 5557 5559 5562 5569 5575 5578 5582 5584 5586 5589 5590 5592 5594 5598 5602 5605 5607 5609 5610 5611 5613 5614 5615 5617 5618 5619 5620 5621 5622 5623 5624 5625 5626 5627 5627 5627 5628 5628 5628 5629 5629 5629 5629 5628 5627 5627 5627 5627 5627 5627 5627 5626 5626 5626 5626 5625 5625 5624 5624 5623 5623 5622 5621 5620 5620 5619 5618 5618 5617 5617 5616 5616 5615 5614 5614 5613 5612 5611 5610
5520 5523 5529 5533 5533 5537 5547 5554 5557 5561 5566 5570 5572 5572 5572 5575 5579 5582 5585 5589 5593 5596 5599 5601 5602 5604 5605 5606 5607 5609 5610 5611 5612 5613 5614 5615 5617 5618 5619 5620 5621 5621 5622 5622 5622 5623 5623 5623 5623 5623 5622 5622 5622 5622 5622 5622 5622 5622 5622 5621 5621 5621 5620 5620 5620 5619 5618 5618 5617 5616 5615 5614 5613 5613 5612 5612 5611 5610 5610 5609 5608 5608 5607 5606 5605 5604
5517 5522 5527 5527 5529 5540 5553 5556 5555 5558 5562 5565 5566 5565 5565 5570 5574 5577 5581 5585 5588 5590 5593 5594 5595 5596 5597 5599 5601 5603 5603 5604 5604 5605 5607 5608 5610 5612 5613 5613 5614 5615 5616 5616 5616 5617 5617 5617 5617 5617 5617 5617 5617 5616 5616 5616 5616 5616 5616 5616 5616 5615 5615 5615 5614 5614 5613 5612 5611 5611 5610 5609 5608 5608 5607 5606 5605 5605 5604 5603 5602 5601 5601 5599 5598 5598